Location: Cazarilh
(42.9578°N, 0.5819°E)
Time: 20:44:29
(UTC+00:00)

Geosat - Pass Details

Date: 11 December 2019
Orbit: 763 x 766 km, 108.0° (Epoch: 24 January)

Event Time Altitude Azimuth Distance (km) Brightness Sun altitude
Rises 05:08:06 0° 151° (SSE) 3,214 7.8 -23.0°
Reaches altitude 10° 05:10:22 10° 151° (SSE) 2,292 7.0 -22.6°
Maximum altitude 05:15:22 88° 66° (ENE) 771 3.9 -21.7°
Enters shadow 05:17:52 31° 334° (NNW) 1,329 4.9 -21.2°
